Regional Weather Roundup
Issued by NWS

Home | Current Version | Previous Version | Graphics & Text | Print | Product List | Glossary On
Versions: 1 2 3 4 5 6 7 8 9 10 11 12 13 14 15 16 17 18 19 20 21 22 23 24 25 26 27 28 29 30 31 32 33 34 35 36 37 38 39 40 41 42 43 44 45 46 47 48 49 50
000
ASUS43 KOAX 270102
RWRNE

WEATHER ROUNDUP FOR NEBRASKA
NATIONAL WEATHER SERVICE OMAHA NE
700 PM CST THU FEB 26 2015

NOTES: SATELLITE DATA IS BEING USED TO AUGMENT CLOUD COVER ABOVE
       12000 FEET.
       "FAIR" INDICATES FEW OR NO CLOUDS BELOW 12,000 FEET WITH NO
       SIGNIFICANT WEATHER AND/OR OBSTRUCTIONS TO VISIBILITY.

  * THESE STATIONS DO NOT REPORT WEATHER SUCH AS RAIN...SNOW OR FOG.

NEZ001>004-019>022-054>056-270200-
NEBRASKA PANHANDLE

CITY           SKY/WX    TMP DP  RH WIND       PRES   REMARKS
SCOTTSBLUFF    MOCLDY    13   3  64 E10       30.29R WCI   0
ALLIANCE       CLEAR      7   0  73 N7        30.31R WCI  -5
CHADRON        CLEAR      7  -3  64 E5        30.37S WCI  -2
SIDNEY         CLOUDY    13   3  64 NE12      30.26R WCI  -1
$$

NEZ057>060-069>072-079>082-270200-
SOUTHWEST NEBRASKA

CITY           SKY/WX    TMP DP  RH WIND       PRES   REMARKS
NORTH PLATTE   CLEAR     11  -7  44 N7        30.39R WCI   0
IMPERIAL         N/A     16   0  49 NE10      30.33R WCI   4
MCCOOK         CLEAR     17  -3  41 NE8       30.39R WCI   7
$$

NEZ005>010-023>029-035>040-094-270200-
NORTH CENTRAL NEBRASKA

CITY           SKY/WX    TMP DP  RH WIND       PRES   REMARKS
VALENTINE      CLEAR      8  -3  61 N8        30.44R WCI  -4
AINSWORTH      CLEAR      6  -2  69 N8        30.44R WCI  -7
BROKEN BOW     CLEAR      7  -7  52 N8        30.42R WCI  -6
ORD            CLEAR      8  -6  52 N9        30.46R WCI  -5
$$

NEZ041-046>049-061>064-073>077-083>087-270200-
SOUTH CENTRAL NEBRASKA

CITY           SKY/WX    TMP DP  RH WIND       PRES   REMARKS
GRAND ISLAND   CLEAR     10  -3  55 N9        30.48R WCI  -3
HASTINGS       FAIR      10  -5  50 NE6       30.45R WCI   0
HEBRON         CLEAR     12  -3  51 NE5       30.51R WCI   4
HOLDREGE       CLEAR     10  -9  42 NE6       30.43R WCI   0
KEARNEY *      CLEAR      9  -8  47 N8        30.45R WCI  -4
YORK             N/A      9   0  66 N10       30.49R WCI  -6
$$

NEZ011>018-030>034-042>045-270200-
NORTHEAST NEBRASKA

CITY           SKY/WX    TMP DP  RH WIND       PRES   REMARKS
NORFOLK        PTCLDY     7  -1  70 N9        30.49R WCI  -7
BLAIR          CLEAR      8  -1  66 N9        30.51R WCI  -6
COLUMBUS *     PTCLDY     9  -6  52 N8        30.52R WCI  -4
TEKAMAH        CLEAR      8  -2  63 N9        30.55R WCI  -5
WAYNE          CLEAR      2  -4  75 N6        30.52R WCI  -9
$$

NEZ050>053-065>068-078-088>093-270200-
SOUTHEAST NEBRASKA

CITY           SKY/WX    TMP DP  RH WIND       PRES   REMARKS
LINCOLN        PTCLDY     8   1  73 N9        30.54R WCI  -5
OMAHA EPPLEY   MOCLDY     8   2  76 N10       30.55R WCI  -6
FALLS CITY     CLEAR      9  -2  61 N9        30.53R WCI  -4
$$

NEZ044-045-051>053-067-270200-
OMAHA AREA

CITY           SKY/WX    TMP DP  RH WIND       PRES   REMARKS
OMAHA EPPLEY   MOCLDY     8   2  76 N10       30.55R WCI  -6
BLAIR          CLEAR      8  -1  66 N9        30.51R WCI  -6
$$


USA.gov is the U.S. government's official web portal to all federal, state and local government web resources and services.